[keps] orb09302.amsat
Ray Hoad
r.hoad at att.net
Thu Oct 29 18:52:59 PDT 2009
SB KEPS @ AMSAT $ORB09302.O
Orbital Elements 09302.OSCAR
HR AMSAT ORBITAL ELEMENTS FOR OSCAR SATELLITES
FROM WA5QGD FORT WORTH,TX October 29, 2009
Send Subscribe/unsubscribe to KEPS at
http://www.amsat.org/mailman/listinfo/keps
BID: ORB09302.O
TO ALL RADIO AMATEURS BT
Satellite: AO-07
Catalog number: 07530
Epoch time: 09302.64229741
Element set: 616
Inclination: 101.4189 deg
RA of node: 322.3442 deg
Eccentricity: 0.0012054
Arg of perigee: 006.1501 deg
Mean anomaly: 353.9709 deg
Mean motion: 12.53576849 rev/day
Decay rate: -2.7e-07 rev/day^2
Epoch rev: 59956
Checksum: 294
Satellite: FO-29
Catalog number: 24278
Epoch time: 09302.66986538
Element set: 165
Inclination: 098.5294 deg
RA of node: 158.4898 deg
Eccentricity: 0.0351069
Arg of perigee: 001.9089 deg
Mean anomaly: 358.3300 deg
Mean motion: 13.52945688 rev/day
Decay rate: -5.0e-07 rev/day^2
Epoch rev: 65193
Checksum: 356
Satellite: SO-33
Catalog number: 25509
Epoch time: 09302.60674044
Element set: 574
Inclination: 031.4318 deg
RA of node: 012.3932 deg
Eccentricity: 0.0354225
Arg of perigee: 073.7945 deg
Mean anomaly: 290.1350 deg
Mean motion: 14.28270079 rev/day
Decay rate: 1.62e-06 rev/day^2
Epoch rev: 57506
Checksum: 286
Satellite: RS-22
Catalog number: 27939
Epoch time: 09301.67237653
Element set: 924
Inclination: 097.9203 deg
RA of node: 171.5256 deg
Eccentricity: 0.0014701
Arg of perigee: 071.9210 deg
Mean anomaly: 288.3600 deg
Mean motion: 14.63351167 rev/day
Decay rate: 1.12e-06 rev/day^2
Epoch rev: 32509
Checksum: 288
Satellite: VO-52
Catalog number: 28650
Epoch time: 09302.57984985
Element set: 354
Inclination: 097.7269 deg
RA of node: 359.6003 deg
Eccentricity: 0.0026198
Arg of perigee: 312.4018 deg
Mean anomaly: 047.5009 deg
Mean motion: 14.81633544 rev/day
Decay rate: -6.3e-07 rev/day^2
Epoch rev: 24254
Checksum: 322
Satellite: SO-67
Catalog number: 35870
Epoch time: 09302.87042381
Element set: 125
Inclination: 097.3668 deg
RA of node: 352.1426 deg
Eccentricity: 0.0012716
Arg of perigee: 140.4319 deg
Mean anomaly: 339.3539 deg
Mean motion: 15.22830636 rev/day
Decay rate: 7.17e-06 rev/day^2
Epoch rev: 641
Checksum: 299
/EX
SB KEPS @ AMSAT $ORB09302.D
Orbital Elements 09302.MICROS
HR AMSAT ORBITAL ELEMENTS FOR THE MICROSATS
FROM WA5QGD FORT WORTH,TX October 29, 2009
Send Subscribe/unsubscribe to KEPS at
http://www.amsat.org/mailman/listinfo/keps
BID: ORB09302.D
TO ALL RADIO AMATEURS BT
Satellite: AO-16
Catalog number: 20439
Epoch time: 09301.46696279
Element set: 0737
Inclination: 098.2989 deg
RA of node: 263.9296 deg
Eccentricity: 0.0011622
Arg of perigee: 131.5862 deg
Mean anomaly: 228.6321 deg
Mean motion: 14.31836934 rev/day
Decay rate: -5.0e-08 rev/day^2
Epoch rev: 03222
Checksum: 317
Satellite: LO-19
Catalog number: 20442
Epoch time: 09302.55021658
Element set: 649
Inclination: 098.2612 deg
RA of node: 271.7047 deg
Eccentricity: 0.0012787
Arg of perigee: 125.4008 deg
Mean anomaly: 234.8357 deg
Mean motion: 14.32071497 rev/day
Decay rate: 2.6e-07 rev/day^2
Epoch rev: 3254
Checksum: 291
Satellite: AO-27
Catalog number: 22825
Epoch time: 09301.64667430
Element set: 374
Inclination: 098.4553 deg
RA of node: 250.9720 deg
Eccentricity: 0.0007770
Arg of perigee: 227.4395 deg
Mean anomaly: 132.6123 deg
Mean motion: 14.29276795 rev/day
Decay rate: 3.2e-07 rev/day^2
Epoch rev: 83897
Checksum: 324
Satellite: IO-26
Catalog number: 22826
Epoch time: 09302.73322228
Element set: 106
Inclination: 098.4471 deg
RA of node: 252.7186 deg
Eccentricity: 0.0008215
Arg of perigee: 220.1135 deg
Mean anomaly: 139.9434 deg
Mean motion: 14.29530094 rev/day
Decay rate: 2.8e-07 rev/day^2
Epoch rev: 83923
Checksum: 288
Satellite: GO-32
Catalog number: 25397
Epoch time: 09301.79502201
Element set: 0027
Inclination: 098.3216 deg
RA of node: 316.9459 deg
Eccentricity: 0.0000862
Arg of perigee: 174.5542 deg
Mean anomaly: 185.5636 deg
Mean motion: 14.23165890 rev/day
Decay rate: 1.05e-06 rev/day^2
Epoch rev: 58713
Checksum: 302
Satellite: NO-44
Catalog number: 26931
Epoch time: 09302.68182321
Element set: 300
Inclination: 067.0521 deg
RA of node: 077.8433 deg
Eccentricity: 0.0006862
Arg of perigee: 272.9861 deg
Mean anomaly: 087.0461 deg
Mean motion: 14.29570988 rev/day
Decay rate: 2.2e-07 rev/day^2
Epoch rev: 42180
Checksum: 296
Satellite: SO-50
Catalog number: 27607
Epoch time: 09301.60052565
Element set: 19
Inclination: 064.5596 deg
RA of node: 339.8965 deg
Eccentricity: 0.0051635
Arg of perigee: 171.2685 deg
Mean anomaly: 188.9325 deg
Mean motion: 14.71469333 rev/day
Decay rate: -3.3e-07 rev/day^2
Epoch rev: 36830
Checksum: 322
Satellite: CO-55
Catalog number: 27844
Epoch time: 09302.58372366
Element set: 699
Inclination: 098.7133 deg
RA of node: 309.8623 deg
Eccentricity: 0.0010507
Arg of perigee: 113.3393 deg
Mean anomaly: 246.8885 deg
Mean motion: 14.20663032 rev/day
Decay rate: 3.7e-07 rev/day^2
Epoch rev: 32834
Checksum: 320
Satellite: CO-57
Catalog number: 27848
Epoch time: 09302.50968831
Element set: 651
Inclination: 098.7175 deg
RA of node: 308.8555 deg
Eccentricity: 0.0010597
Arg of perigee: 118.7345 deg
Mean anomaly: 241.4903 deg
Mean motion: 14.20461822 rev/day
Decay rate: 2.2e-07 rev/day^2
Epoch rev: 32829
Checksum: 321
Satellite: AO-51
Catalog number: 28375
Epoch time: 09301.52415660
Element set: 0520
Inclination: 098.0541 deg
RA of node: 303.3770 deg
Eccentricity: 0.0084960
Arg of perigee: 080.0954 deg
Mean anomaly: 280.9814 deg
Mean motion: 14.40656400 rev/day
Decay rate: 1.3e-07 rev/day^2
Epoch rev: 28015
Checksum: 276
Satellite: CO-56
Catalog number: 28941
Epoch time: 09297.68475575
Element set: 556
Inclination: 098.0955 deg
RA of node: 138.9518 deg
Eccentricity: 0.0011688
Arg of perigee: 319.8691 deg
Mean anomaly: 040.7485 deg
Mean motion: 16.46998778 rev/day
Decay rate: 1.4491492e-01 rev/day^2
Epoch rev: 20790
Checksum: 407
Satellite: GENESAT1
Catalog number: 29655
Epoch time: 09301.75515220
Element set: 845
Inclination: 040.0221 deg
RA of node: 064.6511 deg
Eccentricity: 0.0003119
Arg of perigee: 048.1585 deg
Mean anomaly: 311.9497 deg
Mean motion: 15.68907686 rev/day
Decay rate: 2.6042e-04 rev/day^2
Epoch rev: 16343
Checksum: 290
Satellite: CP3
Catalog number: 31129
Epoch time: 09302.60368458
Element set: 292
Inclination: 097.9712 deg
RA of node: 349.1318 deg
Eccentricity: 0.0101482
Arg of perigee: 228.6334 deg
Mean anomaly: 130.6116 deg
Mean motion: 14.52173446 rev/day
Decay rate: 1.14e-06 rev/day^2
Epoch rev: 13439
Checksum: 284
Satellite: CO-65
Catalog number: 32785
Epoch time: 09302.73183013
Element set: 510
Inclination: 097.9303 deg
RA of node: 005.4744 deg
Eccentricity: 0.0014410
Arg of perigee: 317.8772 deg
Mean anomaly: 042.1329 deg
Mean motion: 14.81533120 rev/day
Decay rate: 6.2e-07 rev/day^2
Epoch rev: 8136
Checksum: 268
Satellite: KKS-1
Catalog number: 33493
Epoch time: 09302.77776196
Element set: 892
Inclination: 098.0676 deg
RA of node: 055.6632 deg
Eccentricity: 0.0020386
Arg of perigee: 163.3205 deg
Mean anomaly: 196.8683 deg
Mean motion: 14.80760329 rev/day
Decay rate: 5.10e-06 rev/day^2
Epoch rev: 4138
Checksum: 321
Satellite: SOHLA-1
Catalog number: 33496
Epoch time: 09302.80396652
Element set: 857
Inclination: 098.0473 deg
RA of node: 050.0803 deg
Eccentricity: 0.0005797
Arg of perigee: 207.1257 deg
Mean anomaly: 152.9644 deg
Mean motion: 14.69452192 rev/day
Decay rate: 4.5e-07 rev/day^2
Epoch rev: 4104
Checksum: 301
/EX
SB KEPS @ AMSAT $ORB09302.W
Orbital Elements 09302.WEATHER
HR AMSAT ORBITAL ELEMENTS FOR WEATHER SATELLITES
FROM WA5QGD FORT WORTH,TX October 29, 2009
Send Subscribe/unsubscribe to KEPS at
http://www.amsat.org/mailman/listinfo/keps
BID: ORB09302.W
TO ALL RADIO AMATEURS BT
Satellite: NOAA-10
Catalog number: 16969
Epoch time: 09302.53426137
Element set: 813
Inclination: 098.6822 deg
RA of node: 328.3899 deg
Eccentricity: 0.0012414
Arg of perigee: 161.7115 deg
Mean anomaly: 198.4531 deg
Mean motion: 14.27397583 rev/day
Decay rate: 2.9e-07 rev/day^2
Epoch rev: 20267
Checksum: 319
Satellite: NOAA-11
Catalog number: 19531
Epoch time: 09302.28469240
Element set: 830
Inclination: 098.7805 deg
RA of node: 030.1428 deg
Eccentricity: 0.0012299
Arg of perigee: 085.8667 deg
Mean anomaly: 274.3889 deg
Mean motion: 14.14906436 rev/day
Decay rate: 9.6e-07 rev/day^2
Epoch rev: 8848
Checksum: 332
Satellite: NOAA-12
Catalog number: 21263
Epoch time: 09302.79441464
Element set: 316
Inclination: 098.7732 deg
RA of node: 310.9310 deg
Eccentricity: 0.0013199
Arg of perigee: 113.2196 deg
Mean anomaly: 247.0374 deg
Mean motion: 14.25598401 rev/day
Decay rate: 1.0e-07 rev/day^2
Epoch rev: 95957
Checksum: 292
Satellite: MET-3/5
Catalog number: 21655
Epoch time: 09301.93073638
Element set: 0727
Inclination: 082.5499 deg
RA of node: 112.0290 deg
Eccentricity: 0.0012838
Arg of perigee: 203.5893 deg
Mean anomaly: 156.4641 deg
Mean motion: 13.17020991 rev/day
Decay rate: 5.1e-07 rev/day^2
Epoch rev: 87523
Checksum: 301
Satellite: MET-2/21
Catalog number: 22782
Epoch time: 09301.88765308
Element set: 0604
Inclination: 082.5454 deg
RA of node: 075.9468 deg
Eccentricity: 0.0021856
Arg of perigee: 335.4551 deg
Mean anomaly: 024.5569 deg
Mean motion: 13.83639545 rev/day
Decay rate: 4.7e-07 rev/day^2
Epoch rev: 81609
Checksum: 333
Satellite: OKEAN-4
Catalog number: 23317
Epoch time: 09301.85578878
Element set: 57
Inclination: 082.5411 deg
RA of node: 209.7405 deg
Eccentricity: 0.0020662
Arg of perigee: 286.4898 deg
Mean anomaly: 073.4052 deg
Mean motion: 14.82732445 rev/day
Decay rate: 2.37e-06 rev/day^2
Epoch rev: 81217
Checksum: 312
Satellite: NOAA-14
Catalog number: 23455
Epoch time: 09302.56744701
Element set: 808
Inclination: 098.8986 deg
RA of node: 019.7041 deg
Eccentricity: 0.0009810
Arg of perigee: 165.2076 deg
Mean anomaly: 194.9402 deg
Mean motion: 14.13771402 rev/day
Decay rate: 3.5e-07 rev/day^2
Epoch rev: 76491
Checksum: 308
